Regional Weather Roundup
Issued by NWS

Home | Current Version | Previous Version | Text Only | Print | Product List | Glossary Off
Versions: 1 2 3 4 5 6 7 8 9 10 11 12 13 14 15 16 17 18 19 20 21 22 23 24 25 26 27 28 29 30 31 32 33 34 35 36 37 38 39 40 41 42 43 44 45 46 47 48 49 50

000
ASUS45 KSLC 302310
RWRUT
UTAH REGIONAL WEATHER ROUNDUP
NATIONAL WEATHER SERVICE SALT LAKE CITY UT
500 PM MDT THU JUL 30 2015

UTZ001>011-023>025-310000-

NORTHERN UTAH

CITY           SKY/WX    TMP DP  RH WIND       PRES   REMARKS
BRIGHAM CITY   SUNNY     90  11   5 NE6       30.23F
HILL AFB       SUNNY     89  20   8 NW9       30.27F
LOGAN          SUNNY     89  24   9 NE6       30.25F
OGDEN          SUNNY     91  21   8 N10       30.24F
PROVO AIRPORT  MOSUNNY   88  39  18 W6        30.24F
SALT LAKE CITY MOSUNNY   93  23   8 N13       30.22F
VERNAL         SUNNY     89  -6   2 CALM      30.25F
WENDOVER       SUNNY     91  28  10 SE8       30.22F
HEBER CITY     SUNNY     90  21   8 N10       30.30S
WEST JORDAN    SUNNY     90  30  12 N12       30.25F

$$

UTZ012>022-026-027-310000-

SOUTHERN/CENTRAL UTAH

CITY           SKY/WX    TMP DP  RH WIND       PRES   REMARKS
BLANDING       MOSUNNY   83  38  20 NW13      30.34F
BRYCE CANYON   PTSUNNY   81  32  17 CALM      30.42F
CEDAR CITY     PTSUNNY   91  23   8 N7        30.23F
DELTA          SUNNY     94  21   7 NW5       30.21F
HANKSVILLE     MOSUNNY   97  25   7 NW7       30.17F HX  90
MILFORD        SUNNY     96  35  11 NE8G18    30.19F HX  91
MOAB/CYNLANDS  SUNNY     97  19   6 W7        30.15F HX  90
PRICE          SUNNY     93  10   4 NW14G23   30.28F
ST GEORGE      CLEAR    100  43  14 W3        30.03S HX  96
KANAB          CLOUDY    90  45  20 E6        30.24F

$$

REGIONAL REPORTS     COLORADO/ARIZONA

CITY           SKY/WX    TMP DP  RH WIND       PRES   REMARKS
CRAIG, CO      SUNNY     90  19   7 CALM      30.32F
GRAND JUNCTION SUNNY     93  25   8 W8        30.18F
RIFLE          SUNNY     92  23   8 CALM      30.23F
MONTROSE       SUNNY     90  30  11 W10G22    30.26F
CORTEZ         LGT RAIN  71  50  47 VRB6      30.31S
PAGE, AZ       PTSUNNY   96  45  17 NW5       30.14F HX  92
GRAND CANYON   CLOUDY    79  47  32 NE9G16    30.37F
KINGMAN        CLOUDY    85  50  29 SE20      30.12S
FLAGSTAFF      CLOUDY    65  62  90 SW9       30.40F

$$

REGIONAL REPORTS    NEVADA/IDAHO/WYOMING

CITY           SKY/WX    TMP DP  RH WIND       PRES   REMARKS
LAS VEGAS, NV  MOSUNNY  103  45  14 CALM      29.92F HX  99
ELY            MOSUNNY   90  19   7 NW12G17   30.30F
ELKO           SUNNY     93  19   7 S7        30.24F
POCATELLO, ID  SUNNY     90  26  10 N6        30.27F
BURLEY         SUNNY     90  31  12 VRB5      30.21F
EVANSTON, WY   SUNNY     82  18   9 W12G17    30.42F
ROCK SPRINGS   SUNNY     83  20   9 SW12      30.38F
KEMMERER       SUNNY     81  19  10 NW12G17   30.45S

$$



USA.gov is the U.S. government's official web portal to all federal, state and local government web resources and services.